contact:dominique.lefevre@mio.osupytheas.fr, maurice.libes@osupytheas.fr, didier.mallarino@osupytheas.fr
Project:EMSO http://www.emso-fr.org/EMSO-France
Depth: 2436.0 m
Title:EMSO Ligure Ouest : Data MII capteur MICROCAT
DateTime_Computer,Latitude,Longitude,Temperature,Conductivity,Pressure,DateTime_Instrument
DateTime_Computer,Latitude,Longitude,degC,S m-1,dbar,DateTime_Instrument
2020-10-13T00:00:45Z,42.805,6.029,13.2974,4.59976,2470.017,2020-10-13T02:01:39Z
2020-10-13T00:03:48Z,42.805,6.029,13.2973,4.59975,2470.017,2020-10-13T02:04:42Z
2020-10-13T00:06:51Z,42.805,6.029,13.2975,4.59977,2470.03,2020-10-13T02:07:45Z
2020-10-13T00:09:54Z,42.805,6.029,13.2974,4.59976,2470.03,2020-10-13T02:10:48Z
2020-10-13T00:12:57Z,42.805,6.029,13.2978,4.59978,2470.03,2020-10-13T02:13:51Z
2020-10-13T00:16:01Z,42.805,6.029,13.2976,4.59976,2470.04,2020-10-13T02:16:54Z
2020-10-13T00:19:04Z,42.805,6.029,13.2973,4.59976,2470.007,2020-10-13T02:19:58Z
2020-10-13T00:22:07Z,42.805,6.029,13.2974,4.59976,2470.04,2020-10-13T02:23:01Z
2020-10-13T00:25:10Z,42.805,6.029,13.2975,4.59976,2470.017,2020-10-13T02:26:04Z
2020-10-13T00:28:13Z,42.805,6.029,13.2971,4.59976,2470.03,2020-10-13T02:29:07Z
2020-10-13T00:31:16Z,42.805,6.029,13.2975,4.59976,2470.017,2020-10-13T02:32:10Z
2020-10-13T00:34:19Z,42.805,6.029,13.2976,4.59976,2470.053,2020-10-13T02:35:13Z
2020-10-13T00:37:22Z,42.805,6.029,13.2975,4.59976,2470.04,2020-10-13T02:38:16Z
2020-10-13T00:40:25Z,42.805,6.029,13.2978,4.59981,2470.03,2020-10-13T02:41:19Z
2020-10-13T00:43:29Z,42.805,6.029,13.2976,4.59976,2470.063,2020-10-13T02:44:22Z
2020-10-13T00:46:32Z,42.805,6.029,13.2976,4.59976,2470.087,2020-10-13T02:47:26Z
2020-10-13T00:49:35Z,42.805,6.029,13.2972,4.59976,2470.04,2020-10-13T02:50:29Z
2020-10-13T00:52:38Z,42.805,6.029,13.2976,4.59976,2470.053,2020-10-13T02:53:32Z
2020-10-13T00:55:41Z,42.805,6.029,13.2979,4.59978,2470.053,2020-10-13T02:56:35Z
2020-10-13T00:58:44Z,42.805,6.029,13.2977,4.59978,2470.04,2020-10-13T02:59:38Z
2020-10-13T01:01:47Z,42.805,6.029,13.2979,4.59978,2470.04,2020-10-13T03:02:41Z
2020-10-13T01:04:50Z,42.805,6.029,13.2976,4.59976,2470.04,2020-10-13T03:05:44Z
2020-10-13T01:07:54Z,42.805,6.029,13.2974,4.59976,2470.04,2020-10-13T03:08:47Z
2020-10-13T01:10:57Z,42.805,6.029,13.2976,4.59980,2470.053,2020-10-13T03:11:51Z
2020-10-13T01:14:00Z,42.805,6.029,13.2977,4.59978,2470.03,2020-10-13T03:14:54Z
2020-10-13T01:17:03Z,42.805,6.029,13.2973,4.59976,2470.04,2020-10-13T03:17:57Z
2020-10-13T01:20:06Z,42.805,6.029,13.2974,4.59982,2470.077,2020-10-13T03:21:00Z
2020-10-13T01:23:09Z,42.805,6.029,13.2976,4.59978,2470.077,2020-10-13T03:24:03Z
2020-10-13T01:26:12Z,42.805,6.029,13.2976,4.59978,2470.04,2020-10-13T03:27:06Z
2020-10-13T01:29:15Z,42.805,6.029,13.2983,4.59978,2470.063,2020-10-13T03:30:09Z
2020-10-13T01:32:19Z,42.805,6.029,13.2979,4.59984,2470.063,2020-10-13T03:33:12Z
2020-10-13T01:35:22Z,42.805,6.029,13.2976,4.59978,2470.077,2020-10-13T03:36:16Z
2020-10-13T01:38:25Z,42.805,6.029,13.2973,4.59978,2470.04,2020-10-13T03:39:19Z
2020-10-13T01:41:28Z,42.805,6.029,13.2974,4.59979,2470.077,2020-10-13T03:42:22Z
2020-10-13T01:44:31Z,42.805,6.029,13.2977,4.59976,2470.04,2020-10-13T03:45:25Z
2020-10-13T01:47:34Z,42.805,6.029,13.2973,4.59976,2470.053,2020-10-13T03:48:28Z
2020-10-13T01:50:37Z,42.805,6.029,13.2979,4.59977,2470.017,2020-10-13T03:51:31Z
2020-10-13T01:53:40Z,42.805,6.029,13.2977,4.59980,2470.053,2020-10-13T03:54:34Z
2020-10-13T01:56:44Z,42.805,6.029,13.2978,4.59983,2470.063,2020-10-13T03:57:37Z
2020-10-13T01:59:47Z,42.805,6.029,13.2974,4.59981,2470.063,2020-10-13T04:00:41Z
2020-10-13T02:02:50Z,42.805,6.029,13.2973,4.59978,2470.063,2020-10-13T04:03:44Z
2020-10-13T02:05:53Z,42.805,6.029,13.2976,4.60000,2470.077,2020-10-13T04:06:47Z
2020-10-13T02:08:56Z,42.805,6.029,13.2976,4.59981,2470.087,2020-10-13T04:09:50Z
2020-10-13T02:11:59Z,42.805,6.029,13.2975,4.59979,2470.063,2020-10-13T04:12:53Z
2020-10-13T02:15:02Z,42.805,6.029,13.2972,4.59981,2470.1,2020-10-13T04:15:56Z
2020-10-13T02:18:05Z,42.805,6.029,13.2974,4.59979,2470.063,2020-10-13T04:18:59Z
2020-10-13T02:21:09Z,42.805,6.029,13.2974,4.59979,2470.063,2020-10-13T04:22:02Z
2020-10-13T02:24:12Z,42.805,6.029,13.2975,4.59979,2470.087,2020-10-13T04:25:05Z
2020-10-13T02:27:15Z,42.805,6.029,13.2972,4.59994,2470.063,2020-10-13T04:28:09Z
2020-10-13T02:30:18Z,42.805,6.029,13.2972,4.59987,2470.04,2020-10-13T04:31:12Z
2020-10-13T02:33:21Z,42.805,6.029,13.2973,4.59989,2470.063,2020-10-13T04:34:15Z
2020-10-13T02:36:24Z,42.805,6.029,13.2975,4.59984,2470.073,2020-10-13T04:37:18Z
2020-10-13T02:39:27Z,42.805,6.029,13.2973,4.59991,2470.063,2020-10-13T04:40:21Z
2020-10-13T02:42:30Z,42.805,6.029,13.2976,4.59988,2470.063,2020-10-13T04:43:24Z
2020-10-13T02:45:33Z,42.805,6.029,13.2977,4.59985,2470.087,2020-10-13T04:46:27Z
2020-10-13T02:48:37Z,42.805,6.029,13.2976,4.59988,2470.087,2020-10-13T04:49:30Z
2020-10-13T02:51:40Z,42.805,6.029,13.2975,4.59983,2470.087,2020-10-13T04:52:34Z
2020-10-13T02:54:43Z,42.805,6.029,13.2975,4.59983,2470.124,2020-10-13T04:55:37Z
2020-10-13T02:57:46Z,42.805,6.029,13.2974,4.59984,2470.1,2020-10-13T04:58:40Z
2020-10-13T03:00:49Z,42.805,6.029,13.2977,4.59982,2470.11,2020-10-13T05:01:43Z
2020-10-13T03:03:52Z,42.805,6.029,13.2976,4.59983,2470.1,2020-10-13T05:04:46Z
2020-10-13T03:06:55Z,42.805,6.029,13.2975,4.59983,2470.063,2020-10-13T05:07:49Z
2020-10-13T03:09:58Z,42.805,6.029,13.2976,4.59983,2470.087,2020-10-13T05:10:52Z
2020-10-13T03:13:02Z,42.805,6.029,13.2975,4.59983,2470.087,2020-10-13T05:13:55Z
2020-10-13T03:16:05Z,42.805,6.029,13.2976,4.59982,2470.087,2020-10-13T05:16:59Z
2020-10-13T03:19:08Z,42.805,6.029,13.2970,4.59982,2470.1,2020-10-13T05:20:02Z
2020-10-13T03:22:11Z,42.805,6.029,13.2974,4.59982,2470.1,2020-10-13T05:23:05Z
2020-10-13T03:25:14Z,42.805,6.029,13.2971,4.59983,2470.063,2020-10-13T05:26:08Z
2020-10-13T03:28:17Z,42.805,6.029,13.2976,4.59981,2470.1,2020-10-13T05:29:11Z
2020-10-13T03:31:20Z,42.805,6.029,13.2977,4.59983,2470.133,2020-10-13T05:32:14Z
2020-10-13T03:34:23Z,42.805,6.029,13.2977,4.59982,2470.087,2020-10-13T05:35:17Z
2020-10-13T03:37:27Z,42.805,6.029,13.2974,4.59978,2470.147,2020-10-13T05:38:20Z
2020-10-13T03:40:30Z,42.805,6.029,13.2974,4.59982,2470.1,2020-10-13T05:41:24Z
2020-10-13T03:43:33Z,42.805,6.029,13.2975,4.59980,2470.11,2020-10-13T05:44:27Z
2020-10-13T03:46:36Z,42.805,6.029,13.2974,4.59983,2470.124,2020-10-13T05:47:30Z
2020-10-13T03:49:39Z,42.805,6.029,13.2974,4.59983,2470.11,2020-10-13T05:50:33Z
2020-10-13T03:52:42Z,42.805,6.029,13.2974,4.59980,2470.087,2020-10-13T05:53:36Z
2020-10-13T03:55:45Z,42.805,6.029,13.2972,4.59981,2470.11,2020-10-13T05:56:39Z
2020-10-13T03:58:48Z,42.805,6.029,13.2977,4.59981,2470.087,2020-10-13T05:59:42Z
2020-10-13T04:01:52Z,42.805,6.029,13.2977,4.59982,2470.133,2020-10-13T06:02:45Z
2020-10-13T04:04:55Z,42.805,6.029,13.2974,4.59981,2470.133,2020-10-13T06:05:49Z
2020-10-13T04:07:58Z,42.805,6.029,13.2972,4.59981,2470.11,2020-10-13T06:08:52Z
2020-10-13T04:11:01Z,42.805,6.029,13.2976,4.59981,2470.156,2020-10-13T06:11:55Z
2020-10-13T04:14:04Z,42.805,6.029,13.2974,4.59981,2470.124,2020-10-13T06:14:58Z
2020-10-13T04:17:07Z,42.805,6.029,13.2975,4.59980,2470.087,2020-10-13T06:18:01Z
2020-10-13T04:20:10Z,42.805,6.029,13.2976,4.59981,2470.049,2020-10-13T06:21:04Z
2020-10-13T04:23:13Z,42.805,6.029,13.2979,4.59982,2470.147,2020-10-13T06:24:07Z
2020-10-13T04:26:16Z,42.805,6.029,13.2977,4.59983,2470.087,2020-10-13T06:27:10Z
2020-10-13T04:29:20Z,42.805,6.029,13.2979,4.59984,2470.096,2020-10-13T06:30:13Z
2020-10-13T04:32:23Z,42.805,6.029,13.2974,4.59981,2470.11,2020-10-13T06:33:17Z
2020-10-13T04:35:26Z,42.805,6.029,13.2979,4.59979,2470.11,2020-10-13T06:36:20Z
2020-10-13T04:38:29Z,42.805,6.029,13.2976,4.59980,2470.11,2020-10-13T06:39:23Z
2020-10-13T04:41:32Z,42.805,6.029,13.2977,4.59981,2470.124,2020-10-13T06:42:26Z
2020-10-13T04:44:35Z,42.805,6.029,13.2974,4.59981,2470.11,2020-10-13T06:45:29Z
2020-10-13T04:47:38Z,42.805,6.029,13.2976,4.59980,2470.124,2020-10-13T06:48:32Z
2020-10-13T04:50:41Z,42.805,6.029,13.2973,4.59983,2470.087,2020-10-13T06:51:35Z
2020-10-13T04:53:45Z,42.805,6.029,13.2974,4.59982,2470.124,2020-10-13T06:54:38Z
2020-10-13T04:56:48Z,42.805,6.029,13.2974,4.59981,2470.124,2020-10-13T06:57:42Z
2020-10-13T04:59:51Z,42.805,6.029,13.2970,4.59981,2470.087,2020-10-13T07:00:45Z
2020-10-13T05:02:54Z,42.805,6.029,13.2976,4.59981,2470.124,2020-10-13T07:03:48Z
2020-10-13T05:05:57Z,42.805,6.029,13.2976,4.59981,2470.11,2020-10-13T07:06:51Z
2020-10-13T05:09:00Z,42.805,6.029,13.2974,4.59986,2470.1,2020-10-13T07:09:54Z
2020-10-13T05:12:03Z,42.805,6.029,13.2974,4.59981,2470.124,2020-10-13T07:12:57Z
2020-10-13T05:15:06Z,42.805,6.029,13.2974,4.59980,2470.147,2020-10-13T07:16:00Z
2020-10-13T05:18:10Z,42.805,6.029,13.2976,4.59984,2470.11,2020-10-13T07:19:03Z
2020-10-13T05:21:13Z,42.805,6.029,13.2975,4.59981,2470.147,2020-10-13T07:22:07Z
2020-10-13T05:24:16Z,42.805,6.029,13.2978,4.59982,2470.11,2020-10-13T07:25:10Z
2020-10-13T05:27:19Z,42.805,6.029,13.2975,4.59980,2470.171,2020-10-13T07:28:13Z
2020-10-13T05:30:22Z,42.805,6.029,13.2974,4.59984,2470.147,2020-10-13T07:31:16Z
2020-10-13T05:33:25Z,42.805,6.029,13.2972,4.59981,2470.11,2020-10-13T07:34:19Z
2020-10-13T05:36:28Z,42.805,6.029,13.2974,4.59980,2470.087,2020-10-13T07:37:22Z
2020-10-13T05:39:31Z,42.805,6.029,13.2975,4.59978,2470.133,2020-10-13T07:40:25Z
2020-10-13T05:42:35Z,42.805,6.029,13.2977,4.59981,2470.11,2020-10-13T07:43:28Z
2020-10-13T05:45:38Z,42.805,6.029,13.2976,4.59980,2470.087,2020-10-13T07:46:32Z
2020-10-13T05:48:41Z,42.805,6.029,13.2976,4.59981,2470.124,2020-10-13T07:49:35Z
2020-10-13T05:51:44Z,42.805,6.029,13.2977,4.59979,2470.096,2020-10-13T07:52:38Z
2020-10-13T05:54:47Z,42.805,6.029,13.2976,4.59980,2470.147,2020-10-13T07:55:41Z
2020-10-13T05:57:50Z,42.805,6.029,13.2981,4.59983,2470.147,2020-10-13T07:58:44Z
2020-10-13T06:00:53Z,42.805,6.029,13.2974,4.59979,2470.087,2020-10-13T08:01:47Z
2020-10-13T06:03:56Z,42.805,6.029,13.2974,4.59978,2470.1,2020-10-13T08:04:50Z
2020-10-13T06:07:00Z,42.805,6.029,13.2980,4.59980,2470.087,2020-10-13T08:07:53Z
2020-10-13T06:10:03Z,42.805,6.029,13.2977,4.59979,2470.063,2020-10-13T08:10:57Z
2020-10-13T06:13:06Z,42.805,6.029,13.2977,4.59981,2470.11,2020-10-13T08:14:00Z
2020-10-13T06:16:09Z,42.805,6.029,13.2977,4.59978,2470.1,2020-10-13T08:17:03Z
2020-10-13T06:19:12Z,42.805,6.029,13.2976,4.59977,2470.087,2020-10-13T08:20:06Z
2020-10-13T06:22:15Z,42.805,6.029,13.2971,4.59980,2470.087,2020-10-13T08:23:09Z
2020-10-13T06:25:18Z,42.805,6.029,13.2977,4.59979,2470.087,2020-10-13T08:26:12Z
2020-10-13T06:28:21Z,42.805,6.029,13.2980,4.59978,2470.11,2020-10-13T08:29:15Z
2020-10-13T06:31:25Z,42.805,6.029,13.2971,4.59977,2470.087,2020-10-13T08:32:18Z
2020-10-13T06:34:28Z,42.805,6.029,13.2974,4.59980,2470.11,2020-10-13T08:35:22Z
2020-10-13T06:37:31Z,42.805,6.029,13.2974,4.59979,2470.087,2020-10-13T08:38:25Z
2020-10-13T06:40:34Z,42.805,6.029,13.2975,4.59978,2470.133,2020-10-13T08:41:28Z
2020-10-13T06:43:37Z,42.805,6.029,13.2975,4.59978,2470.087,2020-10-13T08:44:31Z
2020-10-13T06:46:40Z,42.805,6.029,13.2977,4.59979,2470.087,2020-10-13T08:47:34Z
2020-10-13T06:49:43Z,42.805,6.029,13.2976,4.59977,2470.1,2020-10-13T08:50:37Z
2020-10-13T06:52:46Z,42.805,6.029,13.2974,4.59980,2470.087,2020-10-13T08:53:40Z
2020-10-13T06:55:49Z,42.805,6.029,13.2978,4.59976,2470.087,2020-10-13T08:56:43Z
2020-10-13T06:58:53Z,42.805,6.029,13.2976,4.59978,2470.087,2020-10-13T08:59:46Z
2020-10-13T07:01:56Z,42.805,6.029,13.2978,4.59978,2470.124,2020-10-13T09:02:50Z
2020-10-13T07:04:59Z,42.805,6.029,13.2975,4.59982,2470.04,2020-10-13T09:05:53Z
2020-10-13T07:08:02Z,42.805,6.029,13.2979,4.59982,2470.063,2020-10-13T09:08:56Z
2020-10-13T07:11:05Z,42.805,6.029,13.2976,4.59978,2470.077,2020-10-13T09:11:59Z
2020-10-13T07:14:08Z,42.805,6.029,13.2977,4.59978,2470.087,2020-10-13T09:15:02Z
2020-10-13T07:17:11Z,42.805,6.029,13.2976,4.59977,2470.1,2020-10-13T09:18:05Z
2020-10-13T07:20:14Z,42.805,6.029,13.2972,4.59978,2470.077,2020-10-13T09:21:08Z
2020-10-13T07:23:18Z,42.805,6.029,13.2979,4.59978,2470.087,2020-10-13T09:24:11Z
2020-10-13T07:26:21Z,42.805,6.029,13.2971,4.59978,2470.077,2020-10-13T09:27:15Z
2020-10-13T07:29:24Z,42.805,6.029,13.2975,4.59978,2470.11,2020-10-13T09:30:18Z
2020-10-13T07:32:27Z,42.805,6.029,13.2974,4.59976,2470.1,2020-10-13T09:33:21Z
2020-10-13T07:35:30Z,42.805,6.029,13.2974,4.59976,2470.063,2020-10-13T09:36:24Z
2020-10-13T07:38:33Z,42.805,6.029,13.2979,4.59978,2470.077,2020-10-13T09:39:27Z
2020-10-13T07:41:36Z,42.805,6.029,13.2977,4.59976,2470.1,2020-10-13T09:42:30Z
2020-10-13T07:44:39Z,42.805,6.029,13.2976,4.59978,2470.053,2020-10-13T09:45:33Z
2020-10-13T07:47:43Z,42.805,6.029,13.2974,4.59978,2470.063,2020-10-13T09:48:36Z
2020-10-13T07:50:46Z,42.805,6.029,13.2979,4.59978,2470.077,2020-10-13T09:51:40Z
2020-10-13T07:53:49Z,42.805,6.029,13.2976,4.59979,2470.077,2020-10-13T09:54:43Z
2020-10-13T07:56:52Z,42.805,6.029,13.2979,4.59978,2470.04,2020-10-13T09:57:46Z
2020-10-13T07:59:55Z,42.805,6.029,13.2977,4.59978,2470.04,2020-10-13T10:00:49Z
2020-10-13T08:02:58Z,42.805,6.029,13.2974,4.59977,2470.04,2020-10-13T10:03:52Z
2020-10-13T08:06:01Z,42.805,6.029,13.2974,4.59978,2470.04,2020-10-13T10:06:55Z
2020-10-13T08:09:04Z,42.805,6.029,13.2978,4.59979,2470.063,2020-10-13T10:09:58Z
2020-10-13T08:12:08Z,42.805,6.029,13.2975,4.59978,2470.053,2020-10-13T10:13:01Z
2020-10-13T08:15:11Z,42.805,6.029,13.2975,4.59976,2470.017,2020-10-13T10:16:05Z
2020-10-13T08:18:14Z,42.805,6.029,13.2974,4.59978,2470.077,2020-10-13T10:19:08Z
2020-10-13T08:21:17Z,42.805,6.029,13.2977,4.59976,2470.063,2020-10-13T10:22:11Z
2020-10-13T08:24:20Z,42.805,6.029,13.2976,4.59978,2470.087,2020-10-13T10:25:14Z
2020-10-13T08:27:23Z,42.805,6.029,13.2974,4.59976,2470.017,2020-10-13T10:28:17Z
2020-10-13T08:30:26Z,42.805,6.029,13.2976,4.59976,2470.053,2020-10-13T10:31:20Z
2020-10-13T08:33:29Z,42.805,6.029,13.2974,4.59978,2470.063,2020-10-13T10:34:23Z
2020-10-13T08:36:33Z,42.805,6.029,13.2972,4.59976,2470.03,2020-10-13T10:37:26Z
2020-10-13T08:39:36Z,42.805,6.029,13.2971,4.59976,2470.04,2020-10-13T10:40:30Z
2020-10-13T08:42:39Z,42.805,6.029,13.2977,4.59976,2470.063,2020-10-13T10:43:33Z
2020-10-13T08:45:42Z,42.805,6.029,13.2973,4.59978,2470.077,2020-10-13T10:46:36Z
2020-10-13T08:48:45Z,42.805,6.029,13.2974,4.59976,2470.04,2020-10-13T10:49:39Z
2020-10-13T08:51:48Z,42.805,6.029,13.2975,4.59976,2470.077,2020-10-13T10:52:42Z
2020-10-13T08:54:51Z,42.805,6.029,13.2976,4.59978,2470.063,2020-10-13T10:55:45Z
2020-10-13T08:57:54Z,42.805,6.029,13.2975,4.59976,2470.04,2020-10-13T10:58:48Z
2020-10-13T09:00:58Z,42.805,6.029,13.2975,4.59976,2470.063,2020-10-13T11:01:51Z
2020-10-13T09:04:01Z,42.805,6.029,13.2974,4.59977,2470.063,2020-10-13T11:04:55Z
2020-10-13T09:07:04Z,42.805,6.029,13.2971,4.59976,2470.04,2020-10-13T11:07:58Z
2020-10-13T09:10:07Z,42.805,6.029,13.2974,4.59976,2470.03,2020-10-13T11:11:01Z
2020-10-13T09:13:10Z,42.805,6.029,13.2975,4.59979,2470.04,2020-10-13T11:14:04Z
2020-10-13T09:16:13Z,42.805,6.029,13.2976,4.59976,2470.007,2020-10-13T11:17:07Z
2020-10-13T09:19:16Z,42.805,6.029,13.2976,4.59980,2470.063,2020-10-13T11:20:10Z
2020-10-13T09:22:20Z,42.805,6.029,13.2980,4.59978,2470.017,2020-10-13T11:23:13Z
2020-10-13T09:25:23Z,42.805,6.029,13.2974,4.59978,2470.03,2020-10-13T11:26:17Z
2020-10-13T09:28:26Z,42.805,6.029,13.2978,4.59976,2470.017,2020-10-13T11:29:20Z
2020-10-13T09:31:29Z,42.805,6.029,13.2975,4.59976,2470.053,2020-10-13T11:32:23Z
2020-10-13T09:34:32Z,42.805,6.029,13.2976,4.59978,2470.04,2020-10-13T11:35:26Z
2020-10-13T09:37:35Z,42.805,6.029,13.2976,4.59978,2470.04,2020-10-13T11:38:29Z
2020-10-13T09:40:38Z,42.805,6.029,13.2978,4.59976,2470.053,2020-10-13T11:41:32Z
2020-10-13T09:43:41Z,42.805,6.029,13.2974,4.59978,2470.053,2020-10-13T11:44:35Z
2020-10-13T09:46:45Z,42.805,6.029,13.2976,4.59978,2470.04,2020-10-13T11:47:38Z
2020-10-13T09:49:48Z,42.805,6.029,13.2976,4.59978,2470.053,2020-10-13T11:50:42Z
2020-10-13T09:52:51Z,42.805,6.029,13.2974,4.59978,2470.017,2020-10-13T11:53:45Z
2020-10-13T09:55:54Z,42.805,6.029,13.2974,4.59978,2470.017,2020-10-13T11:56:48Z
2020-10-13T09:58:57Z,42.805,6.029,13.2978,4.59976,2470.04,2020-10-13T11:59:51Z
2020-10-13T10:02:00Z,42.805,6.029,13.2979,4.59978,2470.053,2020-10-13T12:02:54Z
2020-10-13T10:05:03Z,42.805,6.029,13.2976,4.59976,2470.04,2020-10-13T12:05:57Z
2020-10-13T10:08:06Z,42.805,6.029,13.2977,4.59977,2470.017,2020-10-13T12:09:00Z
2020-10-13T10:11:10Z,42.805,6.029,13.2971,4.59978,2470.04,2020-10-13T12:12:03Z
2020-10-13T10:14:13Z,42.805,6.029,13.2971,4.59976,2470.03,2020-10-13T12:15:07Z
2020-10-13T10:17:16Z,42.805,6.029,13.2978,4.59979,2470.063,2020-10-13T12:18:10Z
2020-10-13T10:20:19Z,42.805,6.029,13.2977,4.59978,2470.04,2020-10-13T12:21:13Z
2020-10-13T10:23:22Z,42.805,6.029,13.2978,4.59976,2470.053,2020-10-13T12:24:16Z
2020-10-13T10:26:25Z,42.805,6.029,13.2970,4.59976,2470.017,2020-10-13T12:27:19Z
2020-10-13T10:29:28Z,42.805,6.029,13.2973,4.59976,2470.04,2020-10-13T12:30:22Z
2020-10-13T10:32:31Z,42.805,6.029,13.2972,4.59976,2470.04,2020-10-13T12:33:25Z
2020-10-13T10:35:35Z,42.805,6.029,13.2976,4.59976,2470.053,2020-10-13T12:36:28Z
2020-10-13T10:38:38Z,42.805,6.029,13.2977,4.59978,2470.017,2020-10-13T12:39:32Z
2020-10-13T10:41:41Z,42.805,6.029,13.2975,4.59976,2470.04,2020-10-13T12:42:35Z
2020-10-13T10:44:44Z,42.805,6.029,13.2977,4.59976,2470.053,2020-10-13T12:45:38Z
2020-10-13T10:47:47Z,42.805,6.029,13.2976,4.59976,2470.063,2020-10-13T12:48:41Z
2020-10-13T10:50:50Z,42.805,6.029,13.2976,4.59977,2470.053,2020-10-13T12:51:44Z
2020-10-13T10:53:53Z,42.805,6.029,13.2974,4.59978,2470.077,2020-10-13T12:54:47Z
2020-10-13T10:56:56Z,42.805,6.029,13.2979,4.59976,2470.053,2020-10-13T12:57:50Z
2020-10-13T11:00:00Z,42.805,6.029,13.2976,4.59977,2470.04,2020-10-13T13:00:53Z
2020-10-13T11:03:03Z,42.805,6.029,13.2977,4.59976,2470.04,2020-10-13T13:03:57Z
2020-10-13T11:06:06Z,42.805,6.029,13.2974,4.59978,2470.03,2020-10-13T13:07:00Z
2020-10-13T11:09:09Z,42.805,6.029,13.2976,4.59976,2470.063,2020-10-13T13:10:03Z
2020-10-13T11:12:12Z,42.805,6.029,13.2976,4.59976,2470.04,2020-10-13T13:13:06Z
2020-10-13T11:15:15Z,42.805,6.029,13.2974,4.59977,2470.063,2020-10-13T13:16:09Z
2020-10-13T11:18:18Z,42.805,6.029,13.2977,4.59976,2470.017,2020-10-13T13:19:12Z
2020-10-13T11:21:21Z,42.805,6.029,13.2974,4.59976,2470.053,2020-10-13T13:22:15Z
2020-10-13T11:24:25Z,42.805,6.029,13.2978,4.59978,2470.04,2020-10-13T13:25:18Z
2020-10-13T11:27:28Z,42.805,6.029,13.2976,4.59978,2470.04,2020-10-13T13:28:22Z
2020-10-13T11:30:31Z,42.805,6.029,13.2972,4.59976,2470.04,2020-10-13T13:31:25Z
2020-10-13T11:33:34Z,42.805,6.029,13.2977,4.59978,2470.063,2020-10-13T13:34:28Z
2020-10-13T11:36:37Z,42.805,6.029,13.2976,4.59979,2470.063,2020-10-13T13:37:31Z
2020-10-13T11:39:40Z,42.805,6.029,13.2976,4.59978,2470.063,2020-10-13T13:40:34Z
2020-10-13T11:42:43Z,42.805,6.029,13.2971,4.59977,2470.063,2020-10-13T13:43:37Z
2020-10-13T11:45:46Z,42.805,6.029,13.2974,4.59978,2470.077,2020-10-13T13:46:40Z
2020-10-13T11:48:50Z,42.805,6.029,13.2975,4.59978,2470.063,2020-10-13T13:49:44Z
2020-10-13T11:51:53Z,42.805,6.029,13.2976,4.59976,2470.087,2020-10-13T13:52:47Z
2020-10-13T11:54:56Z,42.805,6.029,13.2976,4.59979,2470.087,2020-10-13T13:55:50Z
2020-10-13T11:57:59Z,42.805,6.029,13.2971,4.59977,2470.063,2020-10-13T13:58:53Z
2020-10-13T12:01:02Z,42.805,6.029,13.2978,4.59979,2470.087,2020-10-13T14:01:56Z
2020-10-13T12:04:05Z,42.805,6.029,13.2973,4.59976,2470.1,2020-10-13T14:04:59Z
2020-10-13T12:07:08Z,42.805,6.029,13.2977,4.59976,2470.087,2020-10-13T14:08:02Z
2020-10-13T12:10:11Z,42.805,6.029,13.2976,4.59976,2470.077,2020-10-13T14:11:05Z
2020-10-13T12:13:15Z,42.805,6.029,13.2974,4.59978,2470.063,2020-10-13T14:14:08Z
2020-10-13T12:16:18Z,42.805,6.029,13.2974,4.59978,2470.087,2020-10-13T14:17:12Z
2020-10-13T12:19:21Z,42.805,6.029,13.2978,4.59976,2470.063,2020-10-13T14:20:15Z
2020-10-13T12:22:24Z,42.805,6.029,13.2974,4.59978,2470.11,2020-10-13T14:23:18Z
2020-10-13T12:25:27Z,42.805,6.029,13.2974,4.59978,2470.077,2020-10-13T14:26:21Z
2020-10-13T12:28:30Z,42.805,6.029,13.2978,4.59976,2470.087,2020-10-13T14:29:24Z
2020-10-13T12:31:33Z,42.805,6.029,13.2980,4.59978,2470.1,2020-10-13T14:32:27Z
2020-10-13T12:34:37Z,42.805,6.029,13.2976,4.59977,2470.087,2020-10-13T14:35:30Z
2020-10-13T12:37:40Z,42.805,6.029,13.2976,4.59976,2470.063,2020-10-13T14:38:34Z
2020-10-13T12:40:43Z,42.805,6.029,13.2976,4.59977,2470.063,2020-10-13T14:41:37Z
2020-10-13T12:43:46Z,42.805,6.029,13.2977,4.59976,2470.087,2020-10-13T14:44:40Z
2020-10-13T12:46:49Z,42.805,6.029,13.2974,4.59976,2470.063,2020-10-13T14:47:43Z
2020-10-13T12:49:52Z,42.805,6.029,13.2976,4.59976,2470.063,2020-10-13T14:50:46Z
2020-10-13T12:52:55Z,42.805,6.029,13.2975,4.59976,2470.11,2020-10-13T14:53:49Z
2020-10-13T12:55:58Z,42.805,6.029,13.2978,4.59978,2470.087,2020-10-13T14:56:52Z
2020-10-13T12:59:02Z,42.805,6.029,13.2971,4.59978,2470.087,2020-10-13T14:59:55Z
2020-10-13T13:02:05Z,42.805,6.029,13.2976,4.59978,2470.124,2020-10-13T15:02:59Z
2020-10-13T13:05:08Z,42.805,6.029,13.2976,4.59978,2470.11,2020-10-13T15:06:02Z
2020-10-13T13:08:11Z,42.805,6.029,13.2975,4.59976,2470.087,2020-10-13T15:09:05Z
2020-10-13T13:11:14Z,42.805,6.029,13.2973,4.59976,2470.133,2020-10-13T15:12:08Z
2020-10-13T13:14:17Z,42.805,6.029,13.2978,4.59976,2470.133,2020-10-13T15:15:11Z
2020-10-13T13:17:20Z,42.805,6.029,13.2975,4.59976,2470.194,2020-10-13T15:18:14Z
2020-10-13T13:20:23Z,42.805,6.029,13.2978,4.59978,2470.133,2020-10-13T15:21:17Z
2020-10-13T13:23:27Z,42.805,6.029,13.2978,4.59978,2470.147,2020-10-13T15:24:20Z
2020-10-13T13:26:30Z,42.805,6.029,13.2976,4.59978,2470.133,2020-10-13T15:27:24Z
2020-10-13T13:29:33Z,42.805,6.029,13.2974,4.59980,2470.133,2020-10-13T15:30:27Z
2020-10-13T13:32:36Z,42.805,6.029,13.2976,4.59978,2470.133,2020-10-13T15:33:30Z
2020-10-13T13:35:39Z,42.805,6.029,13.2977,4.59978,2470.133,2020-10-13T15:36:33Z
2020-10-13T13:38:42Z,42.805,6.029,13.2976,4.59978,2470.133,2020-10-13T15:39:36Z
2020-10-13T13:41:45Z,42.805,6.029,13.2977,4.59981,2470.11,2020-10-13T15:42:39Z
2020-10-13T13:44:48Z,42.805,6.029,13.2976,4.59978,2470.156,2020-10-13T15:45:42Z
2020-10-13T13:47:52Z,42.805,6.029,13.2977,4.59978,2470.171,2020-10-13T15:48:45Z
2020-10-13T13:50:55Z,42.805,6.029,13.2975,4.59979,2470.171,2020-10-13T15:51:49Z
2020-10-13T13:53:58Z,42.805,6.029,13.2974,4.59977,2470.156,2020-10-13T15:54:52Z
2020-10-13T13:57:01Z,42.805,6.029,13.2977,4.59979,2470.171,2020-10-13T15:57:55Z
2020-10-13T14:00:04Z,42.805,6.029,13.2974,4.59978,2470.194,2020-10-13T16:00:58Z
2020-10-13T14:03:07Z,42.805,6.029,13.2976,4.59979,2470.156,2020-10-13T16:04:01Z
2020-10-13T14:06:10Z,42.805,6.029,13.2978,4.59980,2470.194,2020-10-13T16:07:04Z
2020-10-13T14:09:13Z,42.805,6.029,13.2974,4.59976,2470.18,2020-10-13T16:10:07Z
2020-10-13T14:12:17Z,42.805,6.029,13.2975,4.59976,2470.147,2020-10-13T16:13:11Z
2020-10-13T14:15:20Z,42.805,6.029,13.2976,4.59979,2470.156,2020-10-13T16:16:14Z
2020-10-13T14:18:23Z,42.805,6.029,13.2977,4.59978,2470.147,2020-10-13T16:19:17Z
2020-10-13T14:21:26Z,42.805,6.029,13.2974,4.59978,2470.171,2020-10-13T16:22:20Z
2020-10-13T14:24:29Z,42.805,6.029,13.2979,4.59978,2470.194,2020-10-13T16:25:23Z
2020-10-13T14:27:32Z,42.805,6.029,13.2978,4.59980,2470.18,2020-10-13T16:28:26Z
2020-10-13T14:30:35Z,42.805,6.029,13.2981,4.59981,2470.217,2020-10-13T16:31:29Z
2020-10-13T14:33:39Z,42.805,6.029,13.2971,4.59980,2470.194,2020-10-13T16:34:32Z
2020-10-13T14:36:42Z,42.805,6.029,13.2978,4.59978,2470.18,2020-10-13T16:37:36Z
2020-10-13T14:39:45Z,42.805,6.029,13.2977,4.59978,2470.203,2020-10-13T16:40:39Z
2020-10-13T14:42:48Z,42.805,6.029,13.2976,4.59978,2470.203,2020-10-13T16:43:42Z
2020-10-13T14:45:51Z,42.805,6.029,13.2974,4.59979,2470.203,2020-10-13T16:46:45Z
2020-10-13T14:48:54Z,42.805,6.029,13.2973,4.59982,2470.194,2020-10-13T16:49:48Z
2020-10-13T14:51:57Z,42.805,6.029,13.2975,4.59978,2470.217,2020-10-13T16:52:51Z
2020-10-13T14:55:00Z,42.805,6.029,13.2978,4.59978,2470.217,2020-10-13T16:55:54Z
2020-10-13T14:58:04Z,42.805,6.029,13.2975,4.59983,2470.18,2020-10-13T16:58:57Z
2020-10-13T15:01:07Z,42.805,6.029,13.2979,4.59979,2470.203,2020-10-13T17:02:01Z